Weather History for Antigo, WI

Change the Weather History Date:

Thursday, October 11, 2012

  Actual Average Record
Temperature  
Mean Temperature 37 °F -  
Max Temperature 47 °F 56 °F 78 °F (2003)
Min Temperature 27 °F 37 °F 24 °F (1985)
Degree Days  
Heating Degree Days 28    
Moisture  
Dew Point 25 °F    
Average Humidity 60    
Maximum Humidity 77    
Minimum Humidity 30    
Precipitation  
Precipitation 0.00 in - - ()
Sea Level Pressure  
Sea Level Pressure 30.02 in    
Wind  
Wind Speed 10 mph (WNW)    
Max Wind Speed 24 mph    
Max Gust Speed 29 mph    
Visibility 10 miles    
Events Rain    
Averages and records for this station are not official NWS values.
T = Trace of Precipitation, MM = Missing Value Source: NWS Daily Summary

Daily Weather History Graph

Daily Weather History Graph

Search for Another Location

Airport:

Trip Planner

Search our weather history database for the weather conditions in past years. The results will help you decide how hot, cold, wet, or windy it might be!

Date:

Astronomy

Oct. 11, 2012 Rise Set
Actual Time 7:07 AM CDT 6:17 PM CDT
Civil Twilight 6:38 AM CDT 6:47 PM CDT
Nautical Twilight 6:04 AM CDT 7:21 PM CDT
Astronomical Twilight 5:29 AM CDT 7:55 PM CDT
Moon 2:35 AM CDT (10/11) 4:02 PM CDT (10/11)
Length of Visible Light 12h 08m
Length of Day
11h 09m
Waning Crescent, 18% of the Moon is Illuminated
Oct 11
Waning Crescent
Oct 15
New
Oct 21
First Quarter
Oct 29
Full
Nov 6
Last Quarter

Hourly Weather History & Observations

Time (CDT) Temp. Windchill Dew Point Humidity Pressure Visibility Wind Dir Wind Speed Gust Speed Precip Events Conditions
12:15 AM 36.7 °F 30.5 °F 25.2 °F 63% 29.98 in 10.0 mi SSW 8.1 mph - N/A   Overcast
12:35 AM 36.5 °F 29.7 °F 25.0 °F 63% 29.97 in 10.0 mi SSW 9.2 mph - N/A   Overcast
12:55 AM 36.7 °F 31.2 °F 25.3 °F 64% 29.96 in 10.0 mi South 6.9 mph - N/A   Overcast
1:15 AM 36.7 °F 30.5 °F 25.5 °F 64% 29.95 in 10.0 mi South 8.1 mph - N/A   Overcast
1:35 AM 36.5 °F 30.3 °F 25.9 °F 65% 29.94 in 10.0 mi South 8.1 mph - N/A   Overcast
1:55 AM 37.0 °F 30.4 °F 25.9 °F 64% 29.93 in 10.0 mi South 9.2 mph - N/A   Overcast
2:15 AM 37.2 °F 31.2 °F 26.2 °F 65% 29.93 in 10.0 mi South 8.1 mph - N/A   Overcast
2:55 AM 37.4 °F 32.1 °F 26.6 °F 65% 29.90 in 10.0 mi SSE 6.9 mph - N/A   Overcast
3:15 AM 37.0 °F 31.0 °F 26.6 °F 66% 29.87 in 10.0 mi SE 8.1 mph - N/A   Overcast
3:35 AM 37.0 °F 31.0 °F 27.1 °F 67% 29.87 in 10.0 mi SSE 8.1 mph - N/A   Overcast
3:55 AM 37.4 °F 30.3 °F 27.1 °F 66% 29.86 in 10.0 mi SSE 10.4 mph - N/A   Overcast
4:15 AM 37.4 °F 31.4 °F 27.0 °F 66% 29.85 in 10.0 mi SSE 8.1 mph - N/A   Overcast
4:35 AM 37.0 °F 31.0 °F 27.3 °F 68% 29.84 in 10.0 mi South 8.1 mph - N/A   Overcast
4:55 AM 36.9 °F 32.2 °F 27.5 °F 69% 29.84 in 10.0 mi South 5.8 mph - N/A   Overcast
5:15 AM 37.2 °F 31.9 °F 28.0 °F 69% 29.84 in 10.0 mi South 6.9 mph - N/A   Overcast
5:35 AM 37.8 °F 33.3 °F 27.9 °F 67% 29.84 in 10.0 mi SSW 5.8 mph - N/A   Overcast
5:55 AM 41.0 °F 34.3 °F 28.4 °F 61% 29.83 in 10.0 mi WSW 11.5 mph 16.1 mph N/A   Overcast
6:15 AM 42.4 °F 36.5 °F 28.2 °F 57% 29.83 in 10.0 mi SW 10.4 mph - N/A   Overcast
6:35 AM 42.4 °F 37.5 °F 28.6 °F 58% 29.85 in 10.0 mi West 8.1 mph - N/A   Overcast
6:55 AM 42.3 °F 37.3 °F 28.9 °F 59% 29.85 in 10.0 mi West 8.1 mph - N/A   Overcast
7:35 AM 41.5 °F 33.5 °F 30.9 °F 66% 29.86 in 10.0 mi West 16.1 mph 20.7 mph N/A Rain Light Rain
7:55 AM 42.1 °F 36.1 °F 31.8 °F 67% 29.86 in 10.0 mi West 10.4 mph - N/A   Overcast
8:15 AM 41.9 °F 36.3 °F 31.6 °F 67% 29.87 in 10.0 mi West 9.2 mph - N/A   Overcast
8:35 AM 42.3 °F 36.8 °F 31.6 °F 66% 29.88 in 10.0 mi West 9.2 mph 16.1 mph N/A   Overcast
8:55 AM 42.8 °F 35.4 °F 32.0 °F 66% 29.90 in 10.0 mi WNW 15.0 mph 19.6 mph N/A   Overcast
9:15 AM 42.3 °F 35.1 °F 31.8 °F 67% 29.92 in 10.0 mi WNW 13.8 mph 18.4 mph N/A   Overcast
9:35 AM 41.2 °F 33.7 °F 30.7 °F 66% 29.92 in 10.0 mi NW 13.8 mph 19.6 mph N/A   Overcast
9:55 AM 41.5 °F 34.2 °F 30.9 °F 66% 29.94 in 10.0 mi NW 13.8 mph - N/A   Overcast
10:15 AM 40.6 °F 33.4 °F 31.5 °F 70% 29.95 in 10.0 mi NW 12.7 mph 20.7 mph N/A   Overcast
10:35 AM 41.9 °F 34.0 °F 32.4 °F 69% 29.96 in 10.0 mi NW 16.1 mph 21.9 mph N/A   Overcast
10:55 AM 42.8 °F 35.4 °F 32.7 °F 68% 29.96 in 10.0 mi NW 15.0 mph 21.9 mph N/A   Overcast
11:15 AM 42.4 °F 35.0 °F 31.5 °F 65% 29.97 in 10.0 mi NW 15.0 mph 23.0 mph N/A   Mostly Cloudy
11:35 AM 42.4 °F 34.7 °F 30.9 °F 64% 29.98 in 10.0 mi NW 16.1 mph 23.0 mph N/A   Mostly Cloudy
11:55 AM 44.1 °F 35.9 °F 30.6 °F 59% 29.99 in 10.0 mi NW 19.6 mph 24.2 mph N/A   Overcast
12:15 PM 43.2 °F 35.6 °F 29.3 °F 58% 30.00 in 10.0 mi NW 16.1 mph 21.9 mph N/A   Mostly Cloudy
12:55 PM 44.6 °F 38.1 °F 26.1 °F 48% 30.01 in 10.0 mi NW 13.8 mph 23.0 mph N/A   Scattered Clouds
1:15 PM 46.6 °F - 25.5 °F 44% 30.01 in 10.0 mi NNW 15.0 mph 24.2 mph N/A   Scattered Clouds
1:35 PM 44.1 °F 37.7 °F 23.5 °F 44% 30.02 in 10.0 mi NNW 12.7 mph 20.7 mph N/A   Scattered Clouds
1:55 PM 44.4 °F 37.5 °F 21.4 °F 40% 30.02 in 10.0 mi NW 15.0 mph 26.5 mph N/A   Clear
2:15 PM 44.6 °F 38.1 °F 22.5 °F 42% 30.03 in 10.0 mi NW 13.8 mph 20.7 mph N/A   Scattered Clouds
2:35 PM 47.1 °F - 21.2 °F 36% 30.03 in 10.0 mi WNW 24.2 mph 28.8 mph N/A   Scattered Clouds
2:55 PM 47.8 °F - 20.1 °F 33% 30.04 in 10.0 mi WNW 10.4 mph 26.5 mph N/A   Scattered Clouds
3:15 PM 47.1 °F - 17.2 °F 30% 30.05 in 10.0 mi NNW 19.6 mph 26.5 mph N/A   Scattered Clouds
3:55 PM 42.8 °F 34.8 °F 21.0 °F 42% 30.07 in 10.0 mi NNW 17.3 mph 23.0 mph N/A   Clear
4:15 PM 41.4 °F 33.6 °F 19.4 °F 41% 30.08 in 10.0 mi NW 15.0 mph 25.3 mph N/A   Clear
4:35 PM 41.9 °F 35.0 °F 22.3 °F 46% 30.09 in 10.0 mi NW 12.7 mph - N/A   Clear
5:15 PM 40.6 °F 34.3 °F 21.6 °F 47% 30.11 in 10.0 mi NW 10.4 mph - N/A   Clear
5:35 PM 40.3 °F 33.0 °F 20.1 °F 45% 30.12 in 10.0 mi NNW 12.7 mph - N/A   Clear
5:55 PM 39.2 °F 32.0 °F 19.8 °F 46% 30.13 in 10.0 mi NW 11.5 mph 21.9 mph N/A   Clear
6:15 PM 37.6 °F 31.0 °F 20.1 °F 49% 30.14 in 10.0 mi NW 9.2 mph - N/A   Clear
6:35 PM 36.9 °F 31.4 °F 20.1 °F 51% 30.15 in 10.0 mi NW 6.9 mph - N/A   Scattered Clouds
6:55 PM 36.5 °F 28.7 °F 20.5 °F 52% 30.16 in 10.0 mi NNW 11.5 mph 16.1 mph N/A   Scattered Clouds
7:15 PM 34.7 °F 28.8 °F 21.7 °F 59% 30.18 in 10.0 mi NNW 6.9 mph - N/A   Scattered Clouds
7:35 PM 34.2 °F 27.5 °F 20.8 °F 58% 30.19 in 10.0 mi NW 8.1 mph - N/A   Scattered Clouds
7:55 PM 33.4 °F 26.6 °F 21.0 °F 60% 30.20 in 10.0 mi NNW 8.1 mph - N/A   Clear
8:15 PM 32.0 °F 26.4 °F 20.8 °F 63% 30.21 in 10.0 mi NW 5.8 mph - N/A   Clear
8:35 PM 32.0 °F 25.6 °F 21.2 °F 64% 30.22 in 10.0 mi NW 6.9 mph - N/A   Clear
8:55 PM 31.3 °F 25.6 °F 21.0 °F 66% 30.22 in 10.0 mi WNW 5.8 mph - N/A   Scattered Clouds
9:15 PM 30.6 °F 25.8 °F 20.8 °F 67% 30.24 in 10.0 mi WNW 4.6 mph - N/A   Mostly Cloudy
9:55 PM 32.0 °F 24.8 °F 22.1 °F 67% 30.25 in 10.0 mi NW 8.1 mph - N/A   Overcast
10:15 PM 30.9 °F 25.2 °F 21.6 °F 68% 30.25 in 10.0 mi NW 5.8 mph - N/A   Scattered Clouds
10:55 PM 28.2 °F 23.1 °F 21.2 °F 75% 30.27 in 10.0 mi WNW 4.6 mph - N/A   Scattered Clouds
11:15 PM 27.7 °F 21.3 °F 21.0 °F 76% 30.28 in 10.0 mi NW 5.8 mph - N/A   Clear
11:35 PM 28.2 °F 22.0 °F 21.4 °F 76% 30.28 in 10.0 mi NW 5.8 mph - N/A   Scattered Clouds
11:55 PM 27.5 °F 21.1 °F 21.2 °F 77% 30.29 in 10.0 mi NW 5.8 mph - N/A   Scattered Clouds